Location: Pl�tzky
(52.0521°N, 11.8020°E)
Time: 17:10:03
(UTC+00:00)

Cosmos 1844 - Pass Details

Date: 22 November 2019
Orbit: 822 x 868 km, 70.9° (Epoch: 11 December)

Event Time Altitude Azimuth Distance (km) Brightness Sun altitude
Rises 18:24:28 0° 329° (NNW) 3,457 7.3 -28.9°
Reaches altitude 10° 18:26:58 10° 331° (NNW) 2,512 6.5 -29.2°
Enters shadow 18:31:20 52° 345° (NNW) 1,059 4.2 -29.9°
